Location: Big Meadows
(38.5260°N, 78.4400°W)
Time: 04:37:48
(UTC-04:00)

Amateur Radio Satellites - All Passes

Search period start: 21 April 2014 04:07
Search period end: 22 April 2014 04:07
Location: Big Meadows, 38.5260°N, 78.4400°W

Satellite Date Start Highest point End Downlink Frequencies (MHz)
Time Altitude Azimuth
TMSAT-1 21 Apr 04:09:39 04:14:45 46° 99° (E) 04:19:48 436.925 FM
Uribyol 2 21 Apr 04:19:54 04:24:21 30° 292° (WNW) 04:28:48 436.500 FM
KITSAT 1 21 Apr 04:34:57 04:42:14 35° 312° (NW) 04:49:35 435.175 FM
RS-15 21 Apr 05:01:44 05:07:18 15° 98° (E) 05:12:45 29.354 - 29.394 USB, Beacon 29.352 USB
Gurwin Techsat 1B 21 Apr 05:02:30 05:07:26 40° 290° (WNW) 05:12:20 435.225 FM
AO-27 21 Apr 05:02:40 05:05:04 13° 299° (WNW) 05:07:28 436.795 MHz FM
AO-Echo 21 Apr 05:02:48 05:05:10 14° 297° (WNW) 05:07:30 ?
JAS-1B 21 Apr 05:13:13 05:18:54 79° 104° (ESE) 05:24:56 435.800 - 435.900 CW/SSB
ITAMSAT 1 21 Apr 05:14:00 05:15:12 11° 301° (WNW) 05:16:24 435.822 SSB
Uosat F 21 Apr 05:20:30 05:25:31 80° 103° (ESE) 05:30:31 435.120 FM
AO-7 21 Apr 05:45:20 05:53:39 70° 105° (ESE) 06:01:57 29.400 - 29.500 MHz
TMSAT-1 21 Apr 05:50:25 05:54:19 21° 295° (WNW) 05:58:12 436.925 FM
STRAND 1 21 Apr 06:24:26 06:28:59 34° 69° (ENE) 06:33:32 ?
KITSAT 1 21 Apr 06:38:51 06:40:35 11° 338° (NNW) 06:42:19 435.175 FM
MaSat-1 21 Apr 06:42:21 06:44:57 25° 63° (ENE) 06:47:57 437.345 MHz
AO-40 21 Apr 06:42:32 10:17:00 27° 137° (SE) 11:46:53 Beacon 2401.320
Hamsat 21 Apr 06:58:58 07:03:00 36° 97° (E) 07:07:01 145.90 MHz
Uosat F 21 Apr 07:01:52 07:03:36 12° 300° (WNW) 07:05:20 435.120 FM
RS-15 21 Apr 07:06:25 07:17:45 76° 116° (ESE) 07:28:43 29.354 - 29.394 USB, Beacon 29.352 USB
JAS-1B 21 Apr 07:06:34 07:08:54 13° 301° (WNW) 07:11:16 435.800 - 435.900 CW/SSB
AO-7 21 Apr 07:39:13 07:45:43 27° 303° (WNW) 07:52:15 29.400 - 29.500 MHz
PANSAT 21 Apr 07:50:46 07:51:39 11° 163° (SSE) 07:52:31 not established
STRAND 1 21 Apr 08:03:54 08:08:10 27° 264° (W) 08:12:27 ?
MaSat-1 21 Apr 08:21:19 08:23:14 15° 251° (WSW) 08:25:19 437.345 MHz
JAS-2 21 Apr 08:23:43 08:29:12 80° 103° (ESE) 08:35:19 435.800 - 435.900 CW/SSB, 435.910 FM
Hamsat 21 Apr 08:35:39 08:38:43 19° 292° (WNW) 08:41:46 145.90 MHz
Sapphire 21 Apr 08:41:46 08:45:21 18° 46° (NE) 08:48:55 437.095 MHz 1200 baud AX-25 AFSK
SO-67 21 Apr 08:46:02 08:49:30 58° 284° (WNW) 08:52:55 435.3500 MHz FM
RS-15 21 Apr 09:21:19 09:31:09 34° 320° (NW) 09:40:50 29.354 - 29.394 USB, Beacon 29.352 USB
PCSat 21 Apr 09:25:33 09:30:38 39° 55° (NE) 09:35:41 145.825 MHz
PANSAT 21 Apr 09:28:31 09:31:11 18° 176° (S) 09:33:51 not established
Saudisat 1A 21 Apr 09:43:22 09:44:18 11° 107° (ESE) 09:45:15 436.775 MHz
HO-68 21 Apr 10:04:36 10:11:33 50° 101° (E) 10:18:28 435.675 MHz FM
JAS-2 21 Apr 10:11:16 10:13:46 13° 298° (WNW) 10:16:21 435.800 - 435.900 CW/SSB, 435.910 FM
Oscar 11 21 Apr 10:16:49 10:20:19 23° 95° (E) 10:23:48 145.825 FM, Beacon 2401.500 USB
Sapphire 21 Apr 10:23:56 10:29:21 73° 245° (WSW) 10:34:43 437.095 MHz 1200 baud AX-25 AFSK
KITSAT 1 21 Apr 10:33:56 10:40:12 24° 41° (NE) 10:46:24 435.175 FM
PANSAT 21 Apr 11:08:22 11:10:47 16° 189° (S) 11:13:12 not established
PCSat 21 Apr 11:09:20 11:13:50 27° 252° (WSW) 11:18:19 145.825 MHz
Saudisat 1A 21 Apr 11:18:50 11:23:17 72° 302° (WNW) 11:27:46 436.775 MHz
RS-15 21 Apr 11:42:10 11:48:24 16° 355° (N) 11:54:36 29.354 - 29.394 USB, Beacon 29.352 USB
FUNcube-1 21 Apr 11:48:05 11:52:22 80° 102° (ESE) 11:56:45 145.950 - 145.970 MHz USB
Oscar 11 21 Apr 11:52:44 11:56:28 28° 290° (WNW) 12:00:12 145.825 FM, Beacon 2401.500 USB
HO-68 21 Apr 11:52:51 11:58:55 31° 298° (WNW) 12:04:59 435.675 MHz FM
KITSAT 1 21 Apr 12:28:31 12:36:40 89° 242° (WSW) 12:44:44 435.175 FM
AO-27 21 Apr 13:02:23 13:04:12 12° 60° (ENE) 13:06:02 436.795 MHz FM
Saudisat 1A 21 Apr 13:03:00 13:03:41 10° 321° (NW) 13:04:23 436.775 MHz
Oscar 19 21 Apr 13:09:53 13:14:05 26° 67° (ENE) 13:18:18 437.125 CW, 437.150 USB
ITAMSAT 1 21 Apr 13:11:32 13:14:15 15° 62° (ENE) 13:16:57 435.822 SSB
Oscar 16 21 Apr 13:18:06 13:22:40 33° 69° (ENE) 13:27:15 437.025 USB, Beacon 2401.1428
Uribyol 2 21 Apr 13:56:55 14:01:42 41° 70° (ENE) 14:06:31 436.500 FM
RS-15 21 Apr 13:57:47 14:06:26 26° 31° (NNE) 14:15:08 29.354 - 29.394 USB, Beacon 29.352 USB
Oscar 10/S400 21 Apr 14:02:44 15:23:35 23° 268° (W) 18:00:24 145.825 - 145.975 CW/USB, Beacon 145.810 USB
ISS 21 Apr 14:11:21 14:14:07 24° 132° (SE) 14:16:54 145.800 FM
SO-50 21 Apr 14:25:06 14:27:56 17° 109° (ESE) 14:30:46 436.795 FM
KITSAT 1 21 Apr 14:26:24 14:30:54 16° 260° (W) 14:35:24 435.175 FM
AO-Echo 21 Apr 14:33:13 14:38:25 69° 75° (ENE) 14:43:30 ?
AO-27 21 Apr 14:37:47 14:42:59 84° 256° (WSW) 14:48:12 436.795 MHz FM
Gurwin Techsat 1B 21 Apr 14:42:48 14:47:29 33° 68° (ENE) 14:52:10 435.225 FM
ITAMSAT 1 21 Apr 14:47:59 14:53:08 69° 258° (WSW) 14:58:18 435.822 SSB
Oscar 19 21 Apr 14:48:33 14:53:14 35° 263° (W) 14:57:58 437.125 CW, 437.150 USB
AO-7 21 Apr 14:54:13 14:59:12 18° 51° (NE) 15:04:10 29.400 - 29.500 MHz
Oscar 16 21 Apr 14:57:41 15:02:00 27° 264° (W) 15:06:22 437.025 USB, Beacon 2401.1428
Uosat F 21 Apr 14:57:58 14:59:17 11° 60° (ENE) 15:00:36 435.120 FM
TMSAT-1 21 Apr 15:28:57 15:34:10 63° 73° (ENE) 15:39:24 436.925 FM
Uribyol 2 21 Apr 15:37:21 15:41:18 22° 266° (W) 15:45:17 436.500 FM
ISS 21 Apr 15:47:40 15:50:44 34° 328° (NNW) 15:53:50 145.800 FM
OPAL 21 Apr 15:54:14 15:59:25 61° 103° (ESE) 16:04:33 ?
JAS-1B 21 Apr 15:55:30 16:03:26 63° 73° (ENE) 16:10:05 435.800 - 435.900 CW/SSB
SO-50 21 Apr 16:03:46 16:08:05 47° 305° (NW) 16:12:28 436.795 FM
RS-15 21 Apr 16:09:50 16:20:51 78° 58° (ENE) 16:32:09 29.354 - 29.394 USB, Beacon 29.352 USB
AO-Echo 21 Apr 16:15:15 16:17:35 13° 269° (W) 16:19:54 ?
Gurwin Techsat 1B 21 Apr 16:22:51 16:27:24 29° 264° (W) 16:32:00 435.225 FM
Uosat F 21 Apr 16:32:18 16:37:20 86° 256° (WSW) 16:42:23 435.120 FM
UOSAT-12 21 Apr 16:35:18 16:38:32 19° 110° (ESE) 16:41:49 437.025 FM, 437.400 FM
AO-7 21 Apr 16:42:27 16:50:43 81° 71° (ENE) 16:59:01 29.400 - 29.500 MHz
TMSAT-1 21 Apr 17:11:38 17:14:30 15° 269° (W) 17:17:22 436.925 FM
ISS 21 Apr 17:27:19 17:28:17 11° 347° (NNW) 17:29:14 145.800 FM
OPAL 21 Apr 17:34:29 17:37:46 17° 299° (WNW) 17:41:03 ?
JAS-1B 21 Apr 17:48:10 17:54:12 23° 264° (W) 17:59:35 435.800 - 435.900 CW/SSB
Hamsat 21 Apr 17:51:46 17:55:00 22° 69° (ENE) 17:58:15 145.90 MHz
UOSAT-12 21 Apr 18:14:00 18:18:20 43° 307° (NW) 18:22:47 437.025 FM, 437.400 FM
RS-15 21 Apr 18:23:40 18:32:02 26° 257° (WSW) 18:40:38 29.354 - 29.394 USB, Beacon 29.352 USB
JAS-2 21 Apr 18:35:56 18:40:37 27° 68° (ENE) 18:45:00 435.800 - 435.900 CW/SSB, 435.910 FM
STRAND 1 21 Apr 18:38:26 18:40:22 12° 90° (E) 18:42:17 ?
AO-7 21 Apr 18:38:45 18:44:17 19° 268° (W) 18:49:52 29.400 - 29.500 MHz
SO-67 21 Apr 19:18:26 19:21:36 33° 73° (ENE) 19:24:47 435.3500 MHz FM
Hamsat 21 Apr 19:27:11 19:30:49 28° 264° (W) 19:34:31 145.90 MHz
Saudisat 1A 21 Apr 19:47:08 19:51:30 58° 56° (NE) 19:55:48 436.775 MHz
STRAND 1 21 Apr 20:14:57 20:20:02 71° 286° (WNW) 20:25:05 ?
JAS-2 21 Apr 20:20:17 20:25:36 36° 261° (W) 20:30:31 435.800 - 435.900 CW/SSB, 435.910 FM
HO-68 21 Apr 20:32:05 20:38:16 33° 63° (ENE) 20:44:27 435.675 MHz FM
ISS 21 Apr 20:41:09 20:43:59 25° 28° (NNE) 20:46:49 145.800 FM
MaSat-1 21 Apr 20:45:09 20:47:00 16° 110° (ESE) 20:48:44 437.345 MHz
SO-67 21 Apr 20:53:29 20:54:52 12° 268° (W) 20:56:16 435.3500 MHz FM
Oscar 11 21 Apr 21:11:32 21:14:13 16° 66° (ENE) 21:16:54 145.825 FM, Beacon 2401.500 USB
Saudisat 1A 21 Apr 21:28:34 21:30:34 13° 252° (WSW) 21:32:33 436.775 MHz
ISS 21 Apr 22:17:39 22:20:49 40° 225° (SW) 22:23:58 145.800 FM
HO-68 21 Apr 22:18:56 22:25:42 46° 260° (W) 22:32:32 435.675 MHz FM
MaSat-1 21 Apr 22:23:42 22:25:16 14° 300° (WNW) 22:26:47 437.345 MHz
FUNcube-1 21 Apr 22:43:28 22:47:32 52° 74° (ENE) 22:51:35 145.950 - 145.970 MHz USB
Oscar 11 21 Apr 22:45:59 22:50:03 41° 261° (W) 22:54:09 145.825 FM, Beacon 2401.500 USB
SO-50 21 Apr 22:57:31 23:00:00 14° 42° (NE) 23:02:29 436.795 FM
Sapphire 21 Apr 23:23:07 23:26:37 18° 105° (ESE) 23:30:07 437.095 MHz 1200 baud AX-25 AFSK
PCSat 22 Apr 00:05:45 00:10:54 47° 112° (ESE) 00:16:05 145.825 MHz
FUNcube-1 22 Apr 00:22:56 00:24:15 11° 269° (W) 00:25:35 145.950 - 145.970 MHz USB
SO-50 22 Apr 00:36:28 00:41:08 82° 240° (WSW) 00:45:52 436.795 FM
Sapphire 22 Apr 01:04:12 01:09:31 58° 301° (WNW) 01:14:52 437.095 MHz 1200 baud AX-25 AFSK
KITSAT 1 22 Apr 01:04:42 01:08:25 14° 99° (E) 01:12:08 435.175 FM
UOSAT-12 22 Apr 01:05:55 01:08:42 15° 43° (NE) 01:11:29 437.025 FM, 437.400 FM
Oscar 16 22 Apr 01:32:55 01:35:12 13° 90° (E) 01:37:29 437.025 USB, Beacon 2401.1428
OPAL 22 Apr 01:33:19 01:34:48 11° 57° (ENE) 01:36:16 ?
PCSat 22 Apr 01:50:10 01:54:32 25° 310° (NW) 01:58:57 145.825 MHz
Uribyol 2 22 Apr 02:12:15 02:15:24 16° 92° (E) 02:18:32 436.500 FM
AO-Echo 22 Apr 02:42:58 02:46:42 23° 95° (E) 02:50:23 ?
UOSAT-12 22 Apr 02:44:41 02:49:25 76° 241° (WSW) 02:54:04 437.025 FM, 437.400 FM
AO-27 22 Apr 02:52:33 02:57:23 39° 98° (E) 03:02:12 436.795 MHz FM
KITSAT 1 22 Apr 02:54:25 03:02:31 80° 116° (ESE) 03:10:40 435.175 FM
Oscar 19 22 Apr 03:01:01 03:06:16 89° 283° (WNW) 03:11:27 437.125 CW, 437.150 USB
Gurwin Techsat 1B 22 Apr 03:01:45 03:04:31 14° 91° (E) 03:07:17 435.225 FM
ITAMSAT 1 22 Apr 03:02:25 03:07:25 48° 100° (E) 03:12:24 435.822 SSB
OPAL 22 Apr 03:07:51 03:12:52 89° 254° (WSW) 03:18:01 ?
Oscar 16 22 Apr 03:09:50 03:15:01 69° 286° (WNW) 03:20:11 437.025 USB, Beacon 2401.1428
JAS-1B 22 Apr 03:44:20 03:46:41 12° 91° (E) 03:49:05 435.800 - 435.900 CW/SSB
TMSAT-1 22 Apr 03:46:46 03:51:18 28° 96° (E) 03:55:47 436.925 FM
Uribyol 2 22 Apr 03:50:08 03:55:12 56° 288° (WNW) 04:00:15 436.500 FM
